{"data":{"norad_id":59442,"intl_designator":"2024-066A","name":"TSAT-1A","alt_names":[],"object_type":"PAYLOAD","status":"ACTIVE","operator":null,"country":"IND","launch_date":"2024-04-07","launch_site_code":"AFETR","launch_vehicle":null,"mission":null,"orbit_class":"UNKNOWN","rcs_meters":null,"size_class":null,"mass_kg":null,"dimensions":null,"purposes":[],"wikipedia_slug":null,"has_3d_model":false,"image_url":null,"decayed_at":null,"tle_current":{"epoch":"2026-05-25T03:16:12.902016Z","epoch_age_seconds":66516,"freshness":"FRESH","line1":"1 59442U 24066A   26145.13626044  .00011081  00000+0  32701-3 0  9992","line2":"2 59442  45.6163 246.4748 0012085 330.4332  29.5879 15.35146214118237","mean_motion":15.35146214,"eccentricity":0.0012085,"inclination_deg":45.6163,"raan_deg":246.4748,"arg_perigee_deg":330.4332,"mean_anomaly_deg":29.5879,"bstar":0.00032701,"rev_number":11823,"period_min":93.802139943915,"perigee_km":452.22175722429,"apogee_km":468.75070957942,"semimajor_km":6838.6232334019,"source":"CELESTRAK","updated_at":"2026-05-25T13:38:01.423825Z"}}}